LEMUR-2-ROMACOSTE (43048 NORAD) Tracking and Keplerian Element Data

This shows tracking and keplerian element data for the satellite.

Feedback or suggestion? Click here.




ElementValue
Catalog43048
NameLEMUR-2-ROMACOSTE
Epoch Orbit23947
Epoch Day59.50378305
Epoch Year2022
RAAN172.5063
Inclination51.6098
Eccentricity0.0007837
Argument of Perigee326.3703
Mean Anonmoly33.6824
Mean Motion16.37528232
Decay Rate0.10649661
L11 43048U 17071M 22059.50378305 .10649661 12438-4 10231-2 0 9998
L22 43048 51.6098 172.5063 0007837 326.3703 33.6824 16.37528232239473



Live tracking and technical data element details for LEMUR-2-ROMACOSTE (NORAD 43048). LEMUR-2-ROMACOSTE can be tracked NOW for your location showing map with azimuth and elevation plus other details from your city location.







IsCatalogInMostPopularTable: catalog: 43048, numindb: 611
Update: records affected: 1



GetName: 43048 LEMUR-2-ROMACOSTE

Hit Count: updated at: Wed, 04 Dec 2024 13:30:29 GMT